Weather reports worldwide

Advertisment
Brownsville/Int., United States of America (72250): temperature & dewpoint: 12.01.2018 23:00:00 - 18.01.2018 23:00:00 (CST)Brownsville/Int., United States of America (72250): wind speed & gusts: 12.01.2018 23:00:00 - 18.01.2018 23:00:00 (CST)Brownsville/Int., United States of America (72250): wind direction: 12.01.2018 23:00:00 - 18.01.2018 23:00:00 (CST)Brownsville/Int., United States of America (72250): reduced air pressure: 12.01.2018 23:00:00 - 18.01.2018 23:00:00 (CST)Brownsville/Int., United States of America (72250): visibility: 12.01.2018 23:00:00 - 18.01.2018 23:00:00 (CST)Brownsville/Int., United States of America (72250): precipitation: 12.01.2018 23:00:00 - 18.01.2018 23:00:00 (CST)
Date & Time tt [°C] td [°C] ff [km/h] ff [kn] fx [km/h] fx [kn] dd ppp [hPa] vv [km] rr [mm]
18.01.2018 23:00:00 5,6 5,0 15 8 - - WNW 1027,3 11 0,3
18.01.2018 22:00:00 5,6 5,0 15 8 - - NW 1027,5 8 0,0
18.01.2018 21:00:00 5,6 4,4 15 8 - - NW 1027,6 10 0,5
18.01.2018 20:00:00 5,6 5,0 15 8 - - NW 1027,3 10 0,3
18.01.2018 19:00:00 5,6 4,4 15 8 - - NW 1027,1 13 0,0
18.01.2018 18:00:00 5,0 3,9 15 8 - - NW 1027,3 13 0,0
18.01.2018 17:00:00 5,0 3,9 18 10 - - NW 1027,5 3,2 0,3
18.01.2018 16:00:00 5,0 4,0 21 11 - - NNW - 3,2 -
18.01.2018 15:00:00 4,0 3,0 21 11 - - NNW - 3,2 -
18.01.2018 14:00:00 4,0 2,0 22 12 - - NW - 4,0 -
18.01.2018 13:00:00 4,0 2,0 24 13 - - NNW - 8 -
18.01.2018 12:00:00 4,0 0,0 24 13 - - NNW - 8 -
18.01.2018 11:00:00 4,0 -2,0 28 15 - - NNW - 16 -
18.01.2018 10:00:00 4,0 -3,0 - - - - - - 3,3 -
18.01.2018 09:00:00 4,0 -3,0 24 13 - - NNW - 16 -
18.01.2018 08:00:00 3,0 -7,0 18 10 - - NW - 16 -
18.01.2018 07:00:00 3,0 -4,0 26 14 - - NNW - 16 -
18.01.2018 06:00:00 3,0 -6,0 18 10 - - NW - 16 -
18.01.2018 05:00:00 - - - - - - - - - -
18.01.2018 04:00:00 - - - - - - - - - -
18.01.2018 03:00:00 - - - - - - - - - -
18.01.2018 02:00:00 - - - - - - - - - -
18.01.2018 01:00:00 - - - - - - - - - -
18.01.2018 00:00:00 - - - - - - - - - -
17.01.2018 23:00:00 - - - - - - - - - -
17.01.2018 22:00:00 - - - - - - - - - -
17.01.2018 21:00:00 - - - - - - - - - -
17.01.2018 20:00:00 - - - - - - - - - -
17.01.2018 19:00:00 - - - - - - - - - -
17.01.2018 18:00:00 3,0 -3,0 18 10 - - N - 16 -
17.01.2018 17:00:00 4,0 -3,0 18 10 - - N - 16 -
17.01.2018 16:00:00 4,0 -3,0 18 10 - - N - 16 -
17.01.2018 15:00:00 4,0 -3,0 18 10 - - N - 16 -
17.01.2018 14:00:00 - - - - - - - - - -
17.01.2018 13:00:00 - - - - - - - - - -
17.01.2018 12:00:00 - - - - - - - - - -
17.01.2018 11:00:00 2,0 -4,0 24 13 - - NNW - 16 -
17.01.2018 10:00:00 1,0 -6,0 18 10 - - NNW - 16 -
17.01.2018 09:00:00 -1,0 -7,0 22 12 - - NNW - 16 -
17.01.2018 08:00:00 -1,0 -6,0 22 12 - - NW - 16 -
17.01.2018 07:00:00 -1,0 -6,0 26 14 - - NNW - 16 -
17.01.2018 06:00:00 -1,0 -6,0 24 13 - - NNW - 16 -
17.01.2018 05:00:00 - - - - - - - - - -
17.01.2018 04:00:00 - - - - - - - - - -
17.01.2018 03:00:00 - - - - - - - - - -
17.01.2018 02:00:00 - - - - - - - - - -
17.01.2018 01:00:00 - - - - - - - - - -
17.01.2018 00:00:00 - - - - - - - - - -
16.01.2018 23:00:00 - - - - - - - - - -
16.01.2018 22:00:00 - - - - - - - - - -
16.01.2018 21:00:00 - - - - - - - - - -
16.01.2018 20:00:00 - - - - - - - - - -
16.01.2018 19:00:00 - - - - - - - - - -
16.01.2018 18:00:00 - - - - - - - - - -
16.01.2018 17:00:00 1,0 -1,0 28 15 54 29 NNW - 16 -
16.01.2018 16:00:00 1,0 -1,0 35 19 57 31 NNW - 16 -
16.01.2018 15:00:00 2,0 0,0 35 19 55 30 NNW - 16 -
16.01.2018 14:00:00 3,0 1,0 34 18 55 30 NNW - 16 -
16.01.2018 13:00:00 4,0 2,0 31 17 57 31 NNW - 15 -
16.01.2018 12:00:00 4,0 3,0 34 18 59 32 NNW - - 0,0
16.01.2018 11:00:00 - - - - - - - - - -
16.01.2018 10:00:00 9,4 7,2 28 15 54 29 N 1032,0 16 -
16.01.2018 09:00:00 10,6 8,3 28 15 50 27 N 1030,8 16 -
16.01.2018 08:00:00 11,7 8,9 31 17 48 26 N 1029,3 16 -
16.01.2018 07:00:00 17,8 13,9 5 3 - - E 1026,4 16 -
16.01.2018 06:00:00 16,7 13,9 13 7 - - SE 1025,7 16 0,0
16.01.2018 05:00:00 16,1 12,8 5 3 - - ENE 1025,5 16 -
16.01.2018 04:00:00 17,8 13,3 11 6 - - ESE 1024,9 16 -
16.01.2018 03:00:00 17,8 13,3 11 6 - - E 1024,5 16 -
16.01.2018 02:00:00 17,8 13,3 9 5 - - E 1024,3 16 -
16.01.2018 01:00:00 18,3 13,3 13 7 - - ESE 1024,2 16 -
16.01.2018 00:00:00 17,8 13,3 11 6 - - ESE 1024,3 16 0,0
15.01.2018 23:00:00 17,2 13,3 5 3 - - E 1024,1 16 -
15.01.2018 22:00:00 16,1 12,8 11 6 - - ESE 1023,7 16 -
15.01.2018 21:00:00 16,7 12,2 11 6 - - ESE 1023,5 16 -
15.01.2018 20:00:00 17,8 12,8 11 6 - - SE 1022,9 16 -
15.01.2018 19:00:00 18,9 13,3 13 7 - - SE 1022,6 16 -
15.01.2018 18:00:00 20,6 13,3 24 13 - - SE 1022,2 16 0,0
15.01.2018 17:00:00 21,7 12,8 26 14 - - SE 1022,0 16 -
15.01.2018 16:00:00 22,8 12,8 29 16 - - SE 1022,1 16 -
15.01.2018 15:00:00 22,8 12,2 24 13 48 26 SSE 1022,4 16 -
15.01.2018 14:00:00 22,2 12,2 31 17 - - SSE 1023,1 16 -
15.01.2018 13:00:00 22,2 12,8 37 20 48 26 SSE 1024,1 16 -
15.01.2018 12:00:00 22,8 12,2 28 15 - - SE 1025,4 16 0,0
15.01.2018 11:00:00 22,2 12,8 35 19 50 27 SE 1026,5 16 -
15.01.2018 10:00:00 22,2 12,8 22 12 - - SE 1026,6 16 -
15.01.2018 09:00:00 20,0 13,3 21 11 - - SE 1026,2 16 -
15.01.2018 08:00:00 17,2 12,8 13 7 - - SE 1026,0 16 -
15.01.2018 07:00:00 16,7 12,8 9 5 - - ESE 1025,8 16 -
15.01.2018 06:00:00 17,2 12,8 9 5 - - ESE 1025,7 16 0,0
15.01.2018 05:00:00 16,7 12,8 9 5 - - ESE 1025,7 16 -
15.01.2018 04:00:00 16,1 12,8 9 5 - - E 1026,0 16 -
15.01.2018 03:00:00 16,1 12,2 9 5 - - ESE 1026,5 16 -
15.01.2018 02:00:00 15,6 11,7 11 6 - - E 1027,0 16 -
15.01.2018 01:00:00 15,6 11,7 11 6 - - ESE 1027,4 16 -
15.01.2018 00:00:00 15,0 12,2 11 6 - - ESE 1027,8 16 0,0
14.01.2018 23:00:00 15,0 11,7 9 5 - - E 1028,2 16 -
14.01.2018 22:00:00 15,0 11,7 9 5 - - E 1028,3 16 -
14.01.2018 21:00:00 15,0 11,7 8 4 - - E 1028,3 16 -
14.01.2018 20:00:00 16,7 11,1 9 5 - - E 1028,1 16 -
14.01.2018 19:00:00 17,2 10,0 8 4 - - ESE 1027,6 16 -
14.01.2018 18:00:00 18,3 9,4 15 8 - - SE 1027,3 16 0,0
14.01.2018 17:00:00 20,0 8,9 24 13 - - SE 1027,3 16 -
14.01.2018 16:00:00 21,1 8,3 18 10 - - SSE 1027,6 16 -
14.01.2018 15:00:00 21,7 8,3 15 8 - - SE 1027,9 16 -
14.01.2018 14:00:00 21,1 8,3 15 8 - - ESE 1028,6 16 -
14.01.2018 13:00:00 22,2 7,8 22 12 - - SSE 1029,7 16 -
14.01.2018 12:00:00 21,1 8,3 16 9 - - ESE 1031,1 16 0,0
14.01.2018 11:00:00 20,6 8,3 26 14 - - E 1032,2 16 -
14.01.2018 10:00:00 17,8 9,4 8 4 - - NE 1032,4 16 -
14.01.2018 09:00:00 12,2 8,3 0 0 - - N 1032,0 16 -
14.01.2018 08:00:00 5,6 5,0 0 0 - - N 1031,8 16 -
14.01.2018 07:00:00 5,0 3,9 5 3 - - NNW 1031,6 16 -
14.01.2018 06:00:00 5,0 3,9 0 0 - - N 1031,1 16 0,0
14.01.2018 05:00:00 5,6 4,4 0 0 - - N 1031,1 16 -
14.01.2018 04:00:00 5,6 4,4 0 0 - - N 1031,3 16 -
14.01.2018 03:00:00 5,6 4,4 0 0 - - N 1031,5 16 -
14.01.2018 02:00:00 6,1 4,4 8 4 - - N 1032,1 16 -
14.01.2018 01:00:00 6,1 3,9 5 3 - - NNW 1032,7 16 -
14.01.2018 00:00:00 6,1 4,4 8 4 - - NW 1033,0 16 0,0
13.01.2018 23:00:00 7,8 5,0 5 3 - - NW 1033,3 16 -
13.01.2018 22:00:00 8,3 5,6 11 6 - - NNW 1034,0 16 -
13.01.2018 21:00:00 9,4 5,6 8 4 - - NW 1033,8 16 -
13.01.2018 20:00:00 10,6 6,1 5 3 - - NNW 1033,4 16 -
13.01.2018 19:00:00 11,7 6,7 9 5 - - N 1033,2 16 -
13.01.2018 18:00:00 13,3 7,2 13 7 - - NNE 1033,1 16 0,0
13.01.2018 17:00:00 15,0 7,2 21 11 - - NE 1032,7 16 -
13.01.2018 16:00:00 16,7 7,8 18 10 - - N 1032,6 16 -
13.01.2018 15:00:00 17,2 7,8 26 14 - - NE 1032,2 16 -
13.01.2018 14:00:00 18,3 8,3 22 12 - - NE 1032,2 16 -
13.01.2018 13:00:00 18,3 8,3 22 12 - - NE 1032,7 16 -
13.01.2018 12:00:00 18,3 8,3 22 12 - - NE 1033,4 16 0,0
13.01.2018 11:00:00 16,7 7,2 18 10 - - N 1033,9 16 -
13.01.2018 10:00:00 13,9 6,1 21 11 - - N 1033,7 16 -
13.01.2018 09:00:00 10,6 5,0 13 7 - - NNW 1032,4 16 -
13.01.2018 08:00:00 8,3 5,0 13 7 - - NW 1031,6 16 -
13.01.2018 07:00:00 8,9 5,6 11 6 - - NNW 1030,1 16 -
13.01.2018 06:00:00 8,9 5,0 9 5 - - NNW 1028,9 16 0,0
13.01.2018 05:00:00 10,0 5,0 13 7 - - N 1027,8 16 -
13.01.2018 04:00:00 10,0 5,6 15 8 - - N 1027,2 16 -
13.01.2018 03:00:00 9,4 3,9 9 5 - - N 1026,7 16 -
13.01.2018 02:00:00 9,4 3,3 9 5 - - N 1026,4 16 -
13.01.2018 01:00:00 8,9 4,4 9 5 - - NNE 1025,9 16 -
13.01.2018 00:00:00 5,0 0,6 5 3 - - N 1026,1 16 0,0
12.01.2018 23:00:00 6,1 0,0 0 0 - - N 1025,9 16 -

tt = temperature
td = dewpoint
ff = wind speed
fx = gusts
dd = wind direction
ppp = reduced air pressure
vv = visibility
rr = precipitation

Next stations